This is the latest recevied weather packets stored in our database for station/object KY0TEQ-13. If no packets are shown the sender has not sent any weather packets the latest 10 day(s).
| Time | Temp. | Humidity | Pressure | Rain* | Wind** | Luminosity | Snow |
|---|---|---|---|---|---|---|---|
| 1788469209 | 25.56° C | 26% | 1307.3 hPa | 0 mm | - | 610 W/m² | - |
| 1788468903 | 25° C | 27% | 1307.6 hPa | 0 mm | - | 619 W/m² | - |
| 1788468602 | 25.56° C | 27% | 1307.7 hPa | 0 mm | - | 630 W/m² | - |
| 1788468298 | 25° C | 27% | 1307.6 hPa | 0 mm | - | 628 W/m² | - |
| 1788467993 | 25.56° C | 26% | 1307.7 hPa | 0 mm | - | 676 W/m² | - |
| 1788467689 | 25.56° C | 27% | 1307.9 hPa | 0 mm | - | 662 W/m² | - |
| 1788467389 | 25.56° C | 25% | 1307.8 hPa | 0 mm | - | 665 W/m² | - |
| 1788467085 | 25.56° C | 27% | 1307.8 hPa | 0 mm | - | 685 W/m² | - |
| 1788466785 | 24.44° C | 28% | 1307.8 hPa | 0 mm | - | 729 W/m² | - |
| 1788466480 | 25° C | 27% | 1307.8 hPa | 0 mm | - | 135 W/m² | - |
| 1788466179 | 25° C | 28% | 1307.8 hPa | 0 mm | - | 157 W/m² | - |
| 1788465874 | 25.56° C | 27% | 1308 hPa | 0 mm | - | 733 W/m² | - |
| 1788465564 | 25.56° C | 27% | 1308 hPa | 0 mm | - | 718 W/m² | - |
| 1788465260 | 23.89° C | 29% | 1308 hPa | 0 mm | - | 593 W/m² | - |
| 1788464960 | 25.56° C | 27% | 1307.9 hPa | 0 mm | - | 698 W/m² | - |
| 1788464650 | 25.56° C | 28% | 1308.2 hPa | 0 mm | - | 731 W/m² | - |
| 1788464345 | 23.89° C | 29% | 1308.2 hPa | 0 mm | - | 745 W/m² | - |
| 1788464042 | 23.89° C | 29% | 1308.3 hPa | 0 mm | - | 171 W/m² | - |
| 1788463736 | 25.56° C | 28% | 1308.2 hPa | 0 mm | - | 210 W/m² | - |
| 1788463433 | 25° C | 28% | 1308.4 hPa | 0 mm | - | 752 W/m² | - |
| 1788463128 | 23.89° C | 30% | 1308.3 hPa | 0 mm | - | 188 W/m² | - |
| 1788462824 | 24.44° C | 30% | 1308.5 hPa | 0 mm | - | 143 W/m² | - |
| 1788462523 | 23.89° C | 30% | 1308.6 hPa | 0 mm | - | 733 W/m² | - |
| 1788462218 | 24.44° C | 30% | 1308.4 hPa | 0 mm | - | 716 W/m² | - |
| 1788461911 | 25° C | 31% | 1308.9 hPa | 0 mm | - | 712 W/m² | - |
* Rain latest hour (hover to see other rain measurements)
** Current wind speed in m/s (hover to see current wind gust speed)